Temp
-20 -20 -21 -22 -21 -22 -22 -22 -22 -23 -23 -23 -23 -22 -22 -22 -22 -21 -21 -21 -21 -21 -21 -20 -19 -19 -19 -19 -19 -19 -19 -18 -18 -18 -18 -18 -17 -17 -17 -17 -17 -16 -17 -16
-20 -20 -20 -21 -20 -20 -21 -22 -21 -22 -22 -22 -23 -22 -21 -21 -21 -21 -21 -21 -21 -20 -20 -20 -20 -19 -19 -19 -19 -19 -18 -18 -18 -18 -18 -17 -17 -17 -16 -16 -16 -16 -15 -15
-18 -19 -19 -19 -20 -20 -20 -21 -20 -21 -21 -21 -22 -22 -22 -21 -21 -21 -20 -20 -20 -20 -20 -20 -19 -20 -19 -19 -19 -18 -18 -18 -18 -17 -17 -17 -17 -17 -17 -16 -16 -16 -15 -15
-18 -18 -19 -19 -20 -20 -20 -21 -20 -20 -20 -21 -21 -21 -21 -21 -20 -20 -20 -20 -20 -19 -19 -19 -19 -19 -19 -19 -18 -18 -18 -18 -18 -17 -17 -17 -17 -17 -16 -17 -16 -16 -16 -16
-18 -18 -19 -19 -19 -20 -20 -20 -20 -20 -21 -21 -21 -21 -21 -20 -19 -19 -19 -19 -19 -19 -19 -19 -19 -18 -18 -18 -18 -18 -18 -18 -18 -17 -17 -18 -17 -17 -17 -17 -17 -17 -16 -16
-17 -18 -18 -19 -19 -19 -19 -20 -20 -20 -20 -20 -20 -20 -19 -19 -19 -19 -19 -18 -19 -19 -19 -18 -18 -18 -18 -18 -18 -18 -18 -18 -17 -17 -17 -17 -17 -17 -17 -17 -17 -17 -16 -16
-15 -15 -16 -17 -18 -18 -19 -19 -19 -19 -19 -20 -20 -19 -19 -19 -19 -19 -19 -19 -18 -18 -19 -19 -18 -18 -18 -18 -18 -18 -17 -17 -17 -17 -17 -17 -17 -17 -17 -17 -17 -17 -17 -17
-13 -13 -14 -14 -15 -16 -17 -17 -18 -18 -18 -18 -18 -18 -17 -18 -18 -18 -18 -18 -18 -18 -18 -18 -18 -18 -18 -18 -18 -18 -18 -17 -17 -17 -17 -17 -17 -17 -17 -17 -17 -17 -17 -16
-12 -12 -12 -12 -13 -13 -14 -15 -16 -17 -17 -17 -17 -18 -18 -18 -17 -18 -18 -18 -18 -18 -18 -18 -18 -17 -17 -17 -17 -17 -17 -16 -16 -16 -16 -16 -16 -16 -15 -15 -15 -15 -15 -15
-11 -11 -11 -12 -12 -12 -12 -12 -13 -14 -15 -16 -17 -17 -17 -17 -17 -17 -17 -17 -17 -17 -17 -16 -16 -16 -16 -16 -15 -15 -15 -15 -15 -15 -14 -15 -15 -15 -14 -15 -15 -15 -15 -15
-11 -11 -11 -11 -12 -12 -12 -12 -12 -12 -13 -13 -14 -14 -15 -15 -15 -15 -15 -15 -15 -15 -15 -15 -14 -14 -15 -14 -14 -14 -14 -14 -14 -15 -15 -15 -15 -15 -15 -15 -15 -15 -15 -15
-11 -11 -11 -11 -12 -12 -12 -12 -12 -12 -12 -12 -13 -13 -13 -14 -14 -14 -14 -14 -14 -14 -14 -14 -14 -14 -14 -14 -14 -14 -14 -15 -15 -15 -15 -15 -15 -15 -15 -15 -15 -15 -15 -15
-11 -11 -11 -11 -11 -12 -12 -12 -12 -12 -12 -12 -13 -13 -13 -13 -13 -13 -13 -14 -14 -14 -14 -14 -14 -14 -14 -14 -14 -15 -14 -14 -14 -14 -14 -14 -14 -15 -15 -15 -15 -15 -15 -15
-11 -11 -11 -11 -11 -11 -12 -12 -12 -12 -12 -12 -13 -13 -13 -13 -13 -13 -13 -14 -14 -14 -14 -14 -14 -14 -14 -14 -14 -14 -14 -14 -14 -14 -14 -14 -14 -14 -14 -14 -14 -14 -15 -15
-11 -11 -11 -11 -11 -11 -12 -12 -12 -12 -12 -12 -12 -13 -13 -13 -13 -13 -13 -13 -13 -14 -14 -14 -14 -14 -14 -14 -14 -14 -14 -14 -14 -13 -13 -14 -14 -14 -14 -14 -14 -15 -15 -15
-11 -11 -11 -12 -12 -11 -11 -12 -12 -12 -12 -12 -12 -12 -12 -13 -13 -13 -13 -13 -13 -13 -13 -13 -13 -13 -13 -13 -13 -13 -13 -13 -13 -13 -13 -13 -14 -14 -14 -14 -15 -15 -15 -15
-13 -12 -12 -12 -12 -12 -12 -12 -12 -12 -12 -12 -12 -12 -12 -12 -12 -12 -12 -12 -12 -13 -13 -13 -13 -13 -13 -13 -13 -13 -13 -13 -13 -13 -14 -14 -14 -14 -14 -15 -15 -15 -15 -16
-14 -14 -13 -12 -12 -12 -12 -12 -12 -12 -12 -12 -12 -12 -12 -12 -12 -12 -12 -12 -12 -12 -12 -12 -12 -13 -13 -13 -13 -13 -13 -13 -13 -14 -14 -14 -14 -14 -14 -15 -15 -15 -16 -16
-14 -14 -15 -14 -14 -13 -12 -12 -12 -12 -12 -12 -12 -12 -12 -12 -12 -12 -12 -12 -12 -12 -12 -12 -12 -13 -13 -13 -13 -13 -13 -13 -14 -14 -14 -14 -14 -14 -14 -15 -15 -15 -16 -17
-14 -15 -14 -14 -14 -14 -14 -13 -13 -12 -12 -12 -12 -12 -12 -12 -12 -12 -12 -12 -12 -12 -12 -12 -12 -13 -13 -13 -13 -13 -13 -13 -14 -14 -14 -14 -14 -14 -15 -15 -15 -16 -16 -17
-12 -13 -14 -14 -15 -15 -15 -14 -14 -13 -13 -13 -13 -12 -12 -12 -12 -12 -12 -12 -12 -12 -12 -12 -12 -14 -13 -13 -13 -13 -14 -14 -14 -14 -14 -15 -15 -15 -15 -15 -16 -16 -16 -17
-13 -13 -14 -15 -15 -15 -15 -14 -14 -14 -14 -14 -14 -14 -13 -13 -13 -13 -13 -12 -12 -12 -12 -12 -13 -14 -13 -14 -14 -14 -14 -14 -14 -15 -15 -15 -15 -15 -15 -16 -16 -16 -17 -17
-13 -13 -13 -14 -14 -13 -13 -15 -15 -15 -15 -15 -15 -15 -15 -15 -14 -14 -14 -13 -13 -13 -12 -13 -15 -14 -14 -14 -14 -15 -15 -15 -15 -15 -15 -15 -16 -16 -16 -16 -16 -17 -17 -18
-13 -13 -14 -13 -13 -13 -13 -13 -15 -15 -15 -15 -15 -16 -16 -16 -16 -15 -15 -14 -14 -14 -14 -15 -15 -15 -15 -15 -15 -15 -15 -15 -15 -15 -15 -16 -16 -16 -16 -16 -17 -17 -18 -19
-14 -14 -14 -14 -14 -14 -13 -13 -13 -13 -14 -15 -16 -16 -16 -16 -16 -15 -15 -15 -15 -15 -16 -15 -15 -16 -16 -16 -16 -16 -16 -15 -16 -16 -16 -16 -16 -17 -17 -17 -17 -17 -18 -19
-13 -13 -14 -15 -15 -15 -14 -14 -14 -14 -14 -14 -15 -16 -17 -17 -17 -17 -16 -16 -16 -17 -17 -17 -17 -16 -16 -16 -16 -17 -17 -16 -16 -16 -17 -17 -17 -17 -17 -17 -17 -17 -19 -19
-12 -13 -15 -16 -16 -15 -15 -15 -15 -14 -14 -14 -14 -15 -18 -17 -17 -17 -17 -17 -17 -17 -17 -17 -18 -18 -17 -17 -17 -17 -18 -17 -17 -17 -17 -18 -17 -17 -17 -17 -17 -18 -19 -20
Height
5569 5562 5554 5548 5542 5537 5536 5536 5538 5536 5541 5548 5551 5556 5562 5569 5575 5582 5586 5592 5594 5597 5601 5604 5609 5613 5615 5616 5617 5620 5621 5622 5623 5625 5626 5627 5629 5629 5630 5633 5633 5634 5636 5638
5581 5573 5567 5563 5558 5553 5552 5553 5553 5551 5552 5554 5558 5565 5572 5578 5584 5588 5592 5595 5599 5602 5605 5611 5613 5616 5620 5619 5622 5625 5627 5628 5629 5629 5631 5632 5632 5633 5635 5636 5637 5638 5640 5642
5588 5581 5575 5568 5565 5563 5562 5564 5565 5561 5561 5563 5569 5575 5581 5586 5591 5594 5598 5602 5606 5609 5613 5615 5618 5621 5625 5627 5628 5630 5632 5632 5633 5634 5635 5636 5637 5637 5639 5640 5642 5643 5644 5645
5598 5589 5582 5575 5570 5567 5566 5568 5571 5572 5573 5578 5581 5586 5590 5595 5599 5602 5607 5610 5614 5616 5618 5619 5623 5627 5630 5631 5634 5635 5636 5636 5637 5638 5639 5640 5641 5641 5642 5643 5644 5646 5647 5649
5608 5599 5591 5583 5577 5574 5573 5577 5580 5581 5585 5590 5593 5597 5600 5604 5609 5614 5616 5618 5621 5624 5626 5628 5631 5633 5635 5637 5638 5639 5639 5640 5641 5642 5643 5644 5644 5645 5645 5645 5648 5648 5648 5650
5615 5607 5599 5593 5589 5587 5587 5590 5593 5597 5599 5603 5605 5608 5612 5616 5620 5622 5624 5627 5629 5631 5633 5635 5637 5639 5640 5640 5642 5642 5643 5643 5644 5645 5646 5646 5648 5647 5648 5648 5649 5650 5649 5650
5627 5620 5613 5607 5603 5601 5601 5604 5609 5611 5614 5615 5618 5621 5623 5626 5629 5631 5633 5635 5637 5639 5640 5642 5643 5644 5645 5645 5646 5646 5647 5647 5647 5647 5648 5649 5649 5649 5649 5650 5650 5650 5650 5651
5641 5637 5631 5626 5621 5618 5617 5617 5620 5621 5625 5625 5628 5630 5632 5635 5636 5638 5640 5642 5644 5645 5646 5647 5647 5648 5649 5649 5649 5649 5649 5649 5649 5649 5650 5651 5650 5651 5651 5650 5651 5651 5651 5651
5655 5652 5649 5643 5639 5636 5634 5632 5632 5634 5634 5637 5639 5641 5641 5642 5643 5644 5646 5647 5649 5649 5650 5650 5650 5650 5650 5650 5650 5650 5650 5650 5651 5650 5651 5652 5652 5651 5652 5652 5653 5652 5651 5650
5668 5663 5661 5659 5655 5652 5650 5648 5646 5645 5645 5647 5647 5647 5649 5649 5650 5651 5652 5653 5653 5652 5652 5652 5652 5652 5653 5653 5652 5652 5652 5653 5653 5653 5653 5654 5654 5653 5652 5653 5655 5651 5651 5650
5676 5673 5670 5668 5667 5665 5663 5661 5659 5657 5655 5656 5655 5655 5656 5656 5656 5656 5657 5657 5657 5656 5656 5655 5655 5656 5656 5656 5656 5656 5656 5656 5656 5656 5656 5656 5654 5653 5653 5652 5650 5649 5648 5647
5681 5679 5678 5676 5674 5673 5673 5670 5669 5667 5666 5665 5664 5663 5663 5663 5662 5662 5662 5662 5661 5661 5660 5659 5658 5658 5658 5658 5658 5658 5657 5657 5655 5655 5654 5653 5652 5651 5650 5649 5648 5647 5645 5642
5684 5683 5682 5680 5680 5679 5677 5677 5676 5674 5672 5671 5670 5670 5670 5668 5667 5667 5667 5666 5665 5664 5664 5663 5662 5661 5660 5659 5659 5658 5657 5655 5654 5653 5652 5651 5650 5649 5647 5646 5644 5642 5640 5638
5683 5684 5683 5683 5682 5682 5681 5680 5680 5679 5678 5677 5676 5675 5674 5672 5672 5671 5670 5669 5668 5667 5666 5665 5664 5663 5662 5660 5659 5657 5656 5655 5654 5652 5650 5649 5647 5646 5644 5641 5640 5637 5634 5630
5682 5683 5684 5682 5682 5683 5682 5681 5681 5680 5681 5680 5679 5677 5677 5675 5674 5673 5672 5671 5669 5668 5667 5665 5664 5663 5662 5660 5658 5656 5655 5654 5652 5650 5649 5647 5644 5642 5640 5637 5634 5631 5627 5623
5678 5676 5677 5680 5681 5681 5681 5682 5681 5680 5681 5680 5679 5678 5677 5676 5675 5674 5673 5671 5669 5668 5666 5665 5663 5662 5661 5660 5657 5656 5653 5652 5650 5648 5646 5643 5640 5637 5635 5631 5627 5623 5619 5614
5669 5669 5672 5675 5676 5677 5679 5680 5680 5679 5678 5678 5679 5678 5676 5675 5674 5673 5672 5671 5669 5667 5665 5664 5662 5660 5658 5657 5655 5653 5651 5649 5646 5644 5642 5639 5636 5632 5628 5624 5619 5615 5610 5604
5665 5667 5666 5666 5669 5672 5673 5673 5675 5676 5677 5677 5675 5675 5675 5674 5672 5671 5670 5668 5667 5665 5663 5662 5660 5658 5656 5654 5652 5650 5647 5645 5642 5639 5636 5633 5630 5626 5621 5617 5611 5606 5600 5593
5657 5658 5662 5660 5663 5665 5666 5666 5667 5668 5671 5672 5673 5672 5671 5670 5669 5667 5666 5664 5663 5662 5659 5658 5657 5654 5652 5651 5648 5646 5643 5640 5637 5634 5630 5626 5623 5618 5614 5608 5602 5596 5589 5582
5647 5650 5650 5654 5654 5654 5659 5659 5660 5660 5662 5663 5664 5664 5665 5665 5663 5661 5660 5659 5657 5656 5655 5652 5652 5649 5646 5645 5642 5640 5636 5633 5630 5627 5623 5619 5615 5610 5605 5599 5593 5587 5579 5570
5643 5641 5639 5640 5642 5645 5646 5648 5652 5653 5653 5654 5654 5654 5654 5654 5654 5653 5652 5650 5649 5648 5649 5646 5646 5643 5640 5639 5636 5633 5629 5626 5623 5619 5615 5611 5607 5602 5596 5590 5584 5576 5568 5559
5637 5635 5632 5633 5632 5633 5635 5639 5644 5644 5643 5643 5642 5643 5642 5643 5643 5642 5642 5641 5640 5639 5640 5639 5639 5634 5633 5631 5629 5626 5622 5619 5615 5611 5606 5602 5597 5592 5587 5580 5574 5566 5557 5547
5632 5631 5629 5627 5625 5624 5627 5628 5632 5634 5635 5636 5636 5635 5633 5632 5632 5632 5631 5630 5631 5630 5628 5630 5632 5625 5623 5622 5620 5617 5613 5610 5606 5603 5597 5592 5588 5582 5577 5570 5563 5555 5545 5535
5626 5624 5625 5623 5622 5619 5621 5621 5622 5623 5623 5625 5626 5627 5628 5626 5624 5622 5621 5620 5620 5618 5620 5624 5621 5620 5615 5612 5610 5607 5604 5600 5597 5592 5588 5583 5578 5573 5566 5560 5552 5544 5534 5523
5614 5616 5618 5619 5616 5613 5612 5613 5615 5614 5612 5610 5610 5612 5614 5612 5612 5612 5612 5611 5609 5609 5612 5610 5608 5607 5605 5603 5600 5597 5594 5590 5586 5582 5578 5573 5568 5562 5556 5549 5541 5533 5523 5513
5601 5605 5610 5610 5608 5605 5604 5604 5604 5604 5603 5600 5598 5598 5597 5597 5597 5600 5601 5602 5601 5598 5596 5595 5595 5594 5593 5592 5589 5586 5583 5580 5576 5572 5567 5563 5558 5552 5546 5539 5531 5522 5513 5502
5590 5598 5600 5599 5596 5596 5595 5595 5593 5592 5590 5588 5587 5585 5585 5581 5583 5589 5590 5588 5590 5589 5587 5585 5583 5582 5581 5579 5577 5575 5571 5569 5566 5561 5557 5553 5548 5542 5536 5528 5520 5511 5502 5492
Wind_Speed
44 43 40 37 41 44 44 43 42 41 37 31 26 20 14 39 30 26 21 20 22 25 23 23 19 15 13 15 19 14 21 20 19 17 19 18 16 19 19 16 18 16 12 14
39 33 27 28 30 34 33 26 30 30 31 27 27 33 36 28 27 24 22 22 24 24 24 24 21 23 21 27 24 20 21 22 22 21 21 19 17 17 15 15 18 17 17 16
43 38 33 24 13 13 20 17 17 25 30 40 39 34 31 27 26 28 30 31 30 26 22 18 16 21 21 20 19 18 18 16 14 17 18 17 17 17 16 16 14 14 11 12
51 44 37 30 20 16 15 17 14 26 43 39 34 31 30 28 32 32 29 27 28 28 25 20 19 17 14 14 13 11 10 10 12 12 11 12 12 12 10 10 11 10 9 7
48 44 38 31 27 22 23 25 25 40 40 36 33 30 30 34 36 31 28 29 31 32 31 31 27 23 18 17 13 12 10 7 7 5 5 4 3 3 3 2 2 1 1 3
50 49 43 43 35 31 32 34 38 38 38 36 34 32 34 33 27 26 27 32 31 29 27 26 22 18 15 12 12 12 12 10 10 10 9 8 7 4 1 2 4 4 5 8
52 55 53 50 47 41 38 40 38 37 35 35 33 33 31 29 27 28 28 29 25 21 18 16 15 15 15 13 9 8 9 9 7 7 5 4 4 4 3 2 1 2 4 6
46 49 47 47 47 44 40 39 35 35 33 34 34 32 28 24 24 26 23 18 17 12 9 8 8 9 8 9 8 7 4 3 4 5 5 2 3 2 0 2 4 5 6 9
39 43 44 45 47 45 41 37 36 29 29 28 25 20 19 17 16 14 14 11 8 5 3 4 6 5 6 6 8 7 7 8 8 8 9 8 9 10 10 8 8 12 15 16
30 34 35 37 38 39 40 39 38 34 28 23 20 17 13 11 12 10 8 7 6 7 7 8 9 10 10 10 10 11 11 11 10 10 10 8 8 8 9 11 14 15 17 19
20 23 27 29 30 31 31 31 30 30 30 28 25 24 19 18 17 15 14 12 13 13 12 12 13 13 12 11 10 9 9 8 8 8 8 10 12 13 14 17 19 21 22 25
11 14 18 20 22 23 24 24 24 23 23 22 21 20 19 18 16 15 14 13 12 11 11 10 9 9 8 8 9 9 9 9 10 11 12 12 14 16 17 19 20 22 24 27
6 8 10 12 13 13 15 17 18 18 17 18 17 15 14 13 13 12 10 9 8 8 7 6 6 6 7 8 8 8 9 10 11 12 12 14 14 15 16 18 19 22 25 27
7 5 5 5 5 6 7 11 11 11 11 11 10 10 9 8 8 7 7 7 6 6 6 7 7 7 7 8 8 9 10 11 12 11 12 14 16 17 18 20 22 25 28 30
11 10 8 6 4 3 3 3 3 4 4 5 6 6 6 6 7 7 7 7 7 7 7 8 10 10 10 10 11 12 12 12 13 14 13 15 18 20 21 22 25 28 30 34
17 16 15 14 12 10 7 7 6 4 4 3 3 5 6 7 7 8 8 8 8 8 9 10 11 11 11 11 13 15 15 14 14 14 14 17 20 23 26 28 30 33 35 39
20 21 19 20 19 19 17 15 13 12 11 9 8 7 7 9 10 11 12 11 11 11 11 13 14 15 15 14 15 16 16 16 17 17 18 21 24 28 30 32 34 36 39 43
24 23 23 23 22 23 20 20 21 22 19 17 15 13 13 13 13 13 14 15 15 16 16 16 17 18 18 18 18 20 20 20 20 22 22 24 26 29 32 34 37 39 42 45
30 30 27 26 23 26 27 25 23 23 25 25 23 22 20 18 18 18 18 18 19 19 20 22 21 22 20 19 20 21 22 23 24 25 26 25 27 31 33 37 39 41 44 47
28 34 36 34 29 28 27 28 28 27 26 26 28 31 28 26 24 23 22 22 23 23 24 26 22 21 23 22 22 23 24 25 26 27 28 28 29 33 36 39 41 43 47 49
9 18 34 34 37 34 32 31 30 30 30 28 28 32 33 33 32 31 30 29 29 28 26 28 25 22 26 24 26 27 27 28 29 30 31 30 31 34 37 40 42 46 50 52
13 11 14 23 24 33 40 39 35 34 34 31 32 32 33 35 36 36 37 37 37 36 33 31 23 25 29 28 29 30 31 32 32 33 33 33 33 35 38 41 45 49 52 54
20 17 12 10 13 15 19 32 37 38 41 39 35 31 29 31 33 38 42 43 43 42 42 34 23 27 29 33 33 32 33 33 33 35 36 36 36 36 39 42 47 51 54 56
29 23 17 16 11 11 13 15 25 35 40 42 42 41 38 36 36 37 37 42 46 48 44 33 34 33 32 34 36 35 33 34 35 36 38 38 38 38 40 44 48 52 55 57
35 31 25 14 17 16 14 16 18 22 30 41 45 48 48 43 40 41 42 41 41 42 38 35 36 34 36 37 37 38 39 37 36 37 38 39 39 40 42 45 49 53 55 58
39 34 29 20 22 25 22 22 21 20 23 26 36 49 52 47 44 40 41 43 41 39 38 39 39 37 39 41 40 41 42 41 41 38 38 40 41 42 44 46 50 54 56 58
40 30 31 26 28 29 26 26 25 25 25 26 28 34 44 53 50 40 39 41 41 43 42 42 42 40 40 41 42 43 45 43 43 42 39 40 42 44 45 47 50 55 56 58
Wind_Direction
42 42 48 59 73 77 85 101 107 114 117 99 106 105 116 131 134 138 141 135 137 121 121 122 126 130 124 119 128 119 114 114 116 107 112 123 120 104 93 93 101 104 100 102
21 23 33 56 75 84 88 98 105 110 113 105 112 121 124 128 128 131 130 130 124 115 125 128 116 120 116 114 131 125 121 110 108 109 107 114 127 112 115 113 106 94 93 90
19 27 35 32 63 78 92 96 107 120 115 118 121 124 125 124 122 125 119 112 118 123 127 128 125 128 120 112 112 121 123 123 121 120 117 109 106 111 117 119 106 109 107 100
26 31 31 39 57 61 77 87 116 112 116 120 120 118 114 119 122 120 117 115 115 115 116 118 130 119 102 104 109 118 117 122 130 132 134 134 136 138 134 135 132 129 126 126
28 30 41 51 55 63 81 99 113 118 118 114 109 110 115 122 121 117 110 109 110 110 106 102 107 107 107 106 110 111 112 111 112 122 145 141 144 144 159 186 188 248 194 200
29 36 49 60 69 76 85 102 114 115 110 106 103 107 115 120 120 120 113 119 114 106 98 95 94 92 91 113 109 102 100 106 110 111 104 98 94 95 84 350 349 321 296 298
35 35 42 49 62 75 92 107 114 112 106 107 108 115 117 115 112 114 116 124 120 113 103 97 88 79 74 81 97 105 104 95 104 109 102 99 111 85 69 60 334 285 286 289
47 46 48 52 59 69 84 96 107 105 113 122 124 124 124 123 122 132 132 127 130 121 99 82 54 51 57 64 70 79 99 92 84 102 99 75 93 107 109 338 335 322 330 329
57 59 59 58 63 67 72 82 86 98 111 123 137 135 134 128 121 126 137 145 131 107 79 38 17 63 84 93 87 86 83 75 62 51 47 51 49 37 25 12 357 357 345 338
65 68 65 63 62 63 65 69 75 85 94 102 110 121 134 128 116 118 131 125 110 96 68 80 91 85 80 81 78 71 64 59 51 45 34 29 11 359 348 345 335 332 322 315
66 69 75 75 71 67 66 67 70 73 80 82 87 91 100 102 97 94 93 93 89 91 90 84 81 78 74 69 63 55 49 36 22 7 2 351 345 336 335 325 320 317 316 313
74 74 83 82 80 75 68 70 72 71 73 78 80 83 85 87 90 89 86 85 81 79 77 71 67 58 47 38 32 19 14 1 351 343 338 330 329 325 322 317 316 317 316 314
107 103 101 92 81 82 76 72 76 76 74 74 73 75 77 76 73 69 67 66 58 51 46 37 30 27 17 11 5 350 350 345 341 339 334 329 325 322 320 319 321 323 320 316
174 166 140 115 94 87 85 91 88 83 77 75 73 63 60 55 52 48 41 33 28 20 11 1 358 360 357 358 351 344 343 343 340 341 336 333 333 330 326 327 328 326 323 322
216 204 205 191 193 180 149 113 104 77 60 54 47 49 42 38 31 24 16 8 3 358 353 347 344 347 352 352 342 336 342 340 342 341 338 336 335 331 330 329 328 327 325 324
247 235 221 226 229 227 226 232 232 259 277 317 359 7 359 1 0 1 358 350 343 341 334 329 330 332 336 340 334 334 331 329 332 330 330 329 329 327 327 326 324 325 324 323
239 241 249 250 243 243 250 251 254 258 262 269 288 300 317 328 330 335 339 330 322 319 321 321 321 325 326 327 327 328 327 322 317 314 314 316 321 321 322 322 321 323 323 322
246 250 247 246 254 256 257 255 261 266 263 266 270 277 286 295 302 309 316 321 313 304 303 308 313 319 326 325 325 326 327 325 321 316 312 309 313 317 319 320 321 323 323 323
250 251 253 251 259 263 261 257 260 265 265 266 267 269 276 278 281 287 295 300 301 302 302 306 308 305 315 316 321 320 319 320 319 318 314 310 311 316 318 320 321 324 324 324
248 251 256 258 256 257 261 258 256 256 263 266 263 268 272 276 275 274 278 285 291 295 296 300 304 302 301 308 313 315 313 311 313 314 313 310 313 316 316 319 321 324 325 327
258 251 252 250 254 254 253 257 260 258 257 258 261 265 266 268 270 273 274 277 279 286 291 294 300 295 297 301 304 310 309 308 307 309 312 310 312 314 316 318 321 325 327 328
282 296 273 263 266 261 254 251 259 265 264 260 257 259 264 265 264 265 268 269 274 277 282 285 296 284 294 299 302 306 307 305 304 305 309 309 311 313 316 318 321 325 327 330
274 281 296 314 316 331 306 270 255 261 267 268 267 268 270 272 273 269 266 266 267 271 273 280 289 278 285 290 297 301 303 302 301 302 306 307 310 313 316 318 322 325 328 331
272 276 274 286 305 314 325 311 271 266 265 266 267 273 278 280 282 280 278 273 271 272 276 286 283 287 284 286 289 291 298 301 299 300 304 307 309 313 316 319 324 326 329 332
269 274 278 276 275 282 279 291 304 305 281 267 262 263 265 270 275 276 278 281 282 283 286 280 278 278 279 281 285 288 290 296 296 298 302 304 307 311 316 320 324 326 330 332
264 268 278 268 257 267 278 282 287 296 305 300 277 264 262 263 267 272 278 280 290 284 275 270 271 273 275 279 283 287 288 292 296 296 301 303 306 311 316 321 324 326 330 332
262 269 270 268 255 259 270 279 279 291 300 302 311 291 265 264 261 267 275 279 284 288 285 279 272 273 276 278 281 284 287 290 296 296 298 303 306 311 316 321 324 327 331 331